Dewpoint
23 24 25 27 31 32 32 33 32 33 34 34 36 38 42 42 43 46 49 51 51 53 55 57 58 57 55 54 54 52 48 46 40 40 41 43 43 41 40 40 40 39 39
21 23 24 26 29 28 29 31 32 32 33 34 36 39 42 43 45 47 49 50 52 53 55 57 57 56 54 54 54 50 47 44 40 38 39 40 40 40 38 35 35 35 37
20 21 23 25 26 28 29 30 30 31 33 35 37 43 43 43 46 48 50 51 54 56 56 56 56 55 54 51 49 47 45 44 41 39 37 39 39 37 35 34 34 32 32
20 20 22 24 27 29 30 30 31 33 34 35 38 43 43 46 47 49 51 53 56 56 57 56 55 54 51 48 46 45 43 41 40 38 37 37 37 36 32 30 29 30 29
19 19 21 25 28 29 29 32 34 34 35 36 38 41 46 46 48 51 54 56 56 56 55 55 54 51 50 47 45 43 41 40 38 37 36 35 34 34 30 29 27 26 25
19 21 24 26 27 28 33 34 34 35 36 37 39 42 44 46 49 53 55 54 53 52 51 52 52 51 50 48 45 43 41 39 37 36 34 34 33 30 29 27 26 24 22
22 24 28 31 32 32 33 33 34 35 36 37 41 43 44 46 49 52 53 52 50 49 49 48 48 49 48 47 47 45 43 41 38 36 34 30 29 29 29 27 25 24 22
27 31 32 32 32 33 33 33 34 35 36 40 42 44 46 49 50 53 51 49 49 48 48 47 47 46 45 43 40 33 30 29 28 25 24 23 24 25 24 23 23 23 22
34 35 35 35 35 35 34 34 34 35 39 41 46 48 48 50 51 49 47 46 45 46 47 46 43 38 35 34 32 31 31 31 32 30 29 27 26 25 25 23 19 18 17
35 36 37 37 37 36 36 35 35 38 41 45 46 47 46 46 47 45 44 43 42 41 40 38 38 37 36 33 30 27 25 23 21 20 20 21 22 24 23 21 20 17 16
37 38 39 39 38 38 36 35 37 41 43 45 45 46 46 46 46 45 43 41 40 38 37 37 37 35 31 26 23 21 21 23 23 22 22 22 22 22 22 22 21 19 17
39 39 38 39 38 38 35 37 41 45 45 44 44 44 45 46 44 43 41 37 34 31 30 31 31 30 28 27 26 26 24 23 22 22 22 22 22 22 23 23 22 22 22
38 38 38 39 38 37 38 40 42 44 44 43 42 42 42 42 41 38 35 33 31 30 31 34 33 33 30 28 26 24 23 22 21 20 21 21 22 23 23 24 24 24 24
38 38 38 39 38 39 40 42 44 43 42 41 40 39 39 37 36 35 35 36 35 33 30 29 28 28 26 25 23 22 21 22 21 21 21 22 23 23 23 24 22 22 22
39 39 38 38 39 40 44 45 45 45 43 41 40 39 36 34 33 33 31 29 30 29 26 25 24 24 23 23 23 23 23 22 21 22 21 21 20 20 20 21 21 21 20
40 39 38 39 40 44 43 43 45 45 44 43 40 36 35 35 34 33 33 32 30 26 24 24 24 23 23 23 23 23 23 23 22 22 21 21 20 20 20 21 21 20 20
37 38 39 41 44 43 42 41 40 42 42 40 38 38 36 35 34 32 32 31 28 26 24 24 24 24 24 23 23 23 23 24 23 23 22 21 21 22 21 21 21 21 22
39 41 43 44 43 42 41 40 39 38 37 37 37 34 33 33 33 32 30 27 26 26 25 25 25 25 24 25 25 25 24 24 24 24 24 24 24 24 24 23 23 23 23
43 43 43 42 42 41 40 38 37 37 35 33 32 32 32 32 31 29 28 26 26 26 26 26 26 26 26 26 26 26 26 26 26 26 26 25 25 25 25 25 25 24 24
43 43 42 41 40 39 38 37 36 34 32 29 28 28 27 26 26 26 26 27 27 27 27 28 28 29 29 28 28 28 27 26 26 26 26 26 26 26 25 25 25 24 23
42 42 41 40 40 39 38 36 35 31 29 27 25 26 27 26 26 27 27 27 28 29 29 30 30 29 29 29 28 27 26 26 26 25 25 25 25 25 25 25 25 25 25
41 41 40 40 40 39 37 35 32 28 26 26 27 29 28 27 27 28 29 30 31 31 31 31 31 30 29 28 28 27 27 26 26 26 25 25 25 25 25 25 25 25 25
41 41 40 39 39 38 35 31 28 26 25 25 25 26 27 28 29 29 30 31 32 32 32 31 30 30 30 30 30 29 28 27 27 26 25 25 25 26 26 26 26 26 26
41 40 39 38 37 35 32 28 26 24 23 24 26 27 28 29 30 30 31 32 32 32 31 31 30 30 30 30 30 30 29 28 28 27 26 26 27 27 26 26 26 25 25
41 39 38 37 34 31 28 25 24 23 23 25 26 27 29 30 31 31 31 32 31 30 30 30 30 30 29 29 29 29 29 28 28 28 28 27 27 26 26 26 26 27 27
40 38 37 35 32 29 27 25 23 23 24 26 27 28 29 30 31 31 31 31 31 30 30 30 29 28 28 29 29 30 30 29 29 28 27 27 26 26 25 25 26 26 26
Wind_Speed
18 19 20 20 19 19 19 18 19 20 22 24 25 23 16 22 24 22 23 21 23 23 23 23 18 22 19 19 20 17 21 23 29 10 9 11 18 21 20 19 18 19 21
19 19 20 20 19 20 19 21 23 24 20 23 23 19 22 24 23 24 24 23 24 26 24 21 17 22 24 23 19 22 20 20 36 27 12 12 18 18 19 20 17 17 19
22 21 20 21 21 19 22 24 25 25 23 24 23 20 26 26 24 25 25 26 26 24 18 19 23 25 24 23 24 24 25 23 23 27 19 14 14 15 18 17 14 14 15
22 22 22 22 20 20 22 24 25 25 26 25 23 23 22 23 24 24 23 23 22 17 22 24 26 27 30 29 27 28 27 29 25 22 22 17 14 11 16 17 15 13 13
22 24 25 22 22 21 24 23 23 27 23 25 26 23 20 19 19 14 21 8 17 22 21 22 23 27 30 31 30 29 29 29 25 24 20 17 16 13 14 14 17 16 17
24 24 26 24 22 24 19 22 25 25 28 26 25 22 22 18 18 12 11 20 24 27 29 28 32 33 35 34 36 27 30 34 25 22 18 18 10 18 17 17 16 14 13
25 27 21 25 26 24 23 26 27 28 28 28 27 27 24 19 15 5 22 23 32 30 32 33 32 31 32 33 37 35 32 29 26 19 20 16 17 14 15 17 17 16 15
26 25 26 23 25 25 25 26 26 26 29 28 29 27 26 18 22 21 33 31 30 31 32 31 36 31 33 36 36 33 30 27 24 23 24 23 21 20 20 20 18 15 15
25 24 22 22 24 25 24 25 23 25 27 31 23 10 26 28 41 36 36 35 37 33 30 29 35 35 39 44 40 38 34 30 33 34 31 28 26 22 19 18 19 18 14
23 24 22 21 22 22 22 24 21 22 23 16 22 21 29 28 38 45 39 34 40 36 31 32 38 38 38 37 36 35 34 26 27 24 24 27 24 26 27 18 14 18 13
22 21 20 20 20 19 20 20 19 22 15 17 29 22 24 29 37 44 42 33 34 33 31 29 30 40 40 38 35 31 32 27 29 25 23 21 21 22 20 20 18 17 15
20 20 18 17 17 16 17 18 18 4 8 21 26 23 24 29 34 38 40 39 37 36 31 30 33 41 42 40 34 38 35 28 23 24 22 20 20 19 17 17 19 18 15
19 18 16 15 15 15 14 15 13 10 12 19 27 26 27 28 30 41 42 44 41 36 32 38 42 41 40 36 36 34 28 23 22 23 21 18 16 16 16 16 18 17 18
16 15 12 11 12 13 12 9 11 13 14 21 27 24 23 24 27 29 33 37 44 38 36 32 34 34 33 31 27 25 21 18 19 18 18 16 13 12 15 14 16 15 17
11 10 7 9 10 13 7 14 14 12 11 23 22 20 25 26 23 28 28 28 28 32 31 28 27 27 27 25 23 20 18 16 19 18 18 18 17 17 16 14 12 11 14
2 4 5 6 9 5 18 21 28 25 24 25 23 27 26 33 34 37 37 36 35 33 30 28 26 24 24 21 20 19 18 20 19 18 18 17 18 17 17 16 15 15 16
4 5 4 6 8 12 16 21 26 29 31 32 33 35 37 37 37 35 35 35 32 30 29 25 25 22 19 19 19 19 21 19 18 17 18 17 15 15 17 15 15 14 17
5 5 5 11 14 15 18 22 25 26 27 27 31 35 34 34 32 33 33 33 28 26 24 24 22 19 19 20 19 20 20 18 17 17 18 17 17 16 16 17 16 15 15
5 10 12 13 15 18 20 22 24 25 26 26 26 27 28 29 30 29 27 26 25 23 22 22 20 19 18 19 19 19 18 19 17 17 17 17 15 15 17 15 16 17 15
12 15 14 16 17 18 20 22 24 24 23 22 21 19 19 23 23 22 21 23 23 21 20 20 18 18 18 19 18 17 17 17 17 16 16 16 14 14 16 16 16 16 15
11 13 18 17 17 18 20 21 21 21 22 20 16 16 20 22 21 21 21 20 20 20 20 19 18 18 17 18 17 18 17 17 17 17 17 16 15 17 14 14 14 13 12
12 14 16 18 17 18 19 20 21 22 20 19 19 22 24 21 21 21 21 20 18 18 16 18 17 17 17 17 17 18 17 18 17 17 17 15 15 15 13 14 15 14 15
12 16 17 17 18 22 21 20 20 20 21 19 19 19 19 20 21 21 20 18 18 18 16 17 18 18 17 16 16 16 18 18 17 17 18 16 16 16 15 16 15 15 14
14 16 18 18 18 20 20 21 20 20 20 19 18 18 19 20 20 20 18 19 19 17 16 17 17 19 18 17 16 16 16 16 15 16 17 17 17 16 15 15 14 14 14
15 17 18 17 18 20 21 20 20 19 19 19 19 19 19 19 20 18 18 18 18 18 18 17 17 19 20 20 18 18 19 20 17 17 17 17 18 17 15 14 14 14 15
16 17 17 16 17 17 18 19 19 18 19 19 18 18 18 19 18 18 18 18 18 17 18 17 18 20 20 18 19 20 20 20 19 20 17 17 17 16 15 15 15 14 15
Wind_Direction
322 321 316 308 302 304 302 301 304 303 301 302 298 295 299 297 288 280 270 268 270 264 258 243 221 154 151 155 152 140 137 132 121 110 92 93 102 106 99 95 90 85 81
320 314 308 303 305 304 302 304 298 296 296 297 294 294 301 289 283 280 276 268 258 249 242 230 157 143 142 147 139 132 130 137 127 127 112 106 101 97 100 98 90 81 81
315 310 305 303 301 302 302 297 297 298 304 301 300 301 294 285 278 276 270 261 252 236 218 163 148 145 137 123 121 121 120 119 123 126 122 116 108 113 107 100 98 87 84
308 307 302 299 296 299 300 305 307 310 306 304 298 281 278 279 278 263 291 259 235 206 156 148 145 140 131 126 123 122 127 121 122 119 115 116 121 120 112 111 98 86 87
306 305 300 297 298 300 304 307 313 307 305 298 296 295 283 287 286 290 286 204 153 144 135 132 123 122 128 126 126 128 130 122 121 121 120 123 129 132 120 109 105 97 82
308 305 301 302 302 304 321 326 316 318 310 304 303 296 295 290 286 310 107 124 113 110 105 104 107 107 108 112 115 126 127 125 123 123 129 130 127 118 122 128 126 113 91
306 299 316 324 322 318 318 319 314 312 311 306 304 300 289 273 267 200 128 119 102 105 106 105 99 103 106 110 111 109 107 108 111 119 115 112 115 124 113 102 97 97 99
310 313 311 313 310 312 315 314 311 313 311 308 303 294 291 243 199 140 111 99 99 99 100 107 109 114 117 112 103 94 86 81 85 85 86 84 86 90 103 111 105 93 80
311 304 308 311 308 309 310 307 313 315 312 313 314 71 68 93 111 109 102 98 91 89 92 104 106 106 110 106 100 95 91 90 87 88 89 92 92 101 117 111 102 97 85
313 310 312 303 300 301 303 305 315 312 313 333 59 65 83 87 97 99 99 100 95 96 96 94 100 104 102 98 100 104 98 92 90 83 74 68 65 66 64 77 117 116 105
310 311 304 301 300 300 300 310 316 314 323 66 71 65 79 87 87 94 96 95 103 102 99 99 100 101 98 98 98 100 105 107 96 91 84 73 66 63 63 66 73 98 93
307 303 300 300 302 305 305 311 320 339 87 90 83 76 76 81 90 99 102 101 100 101 102 101 102 102 102 103 102 105 104 100 94 89 87 83 80 77 72 72 73 76 80
302 298 299 303 302 299 310 324 341 63 76 89 88 82 83 85 89 93 95 98 98 99 103 107 104 103 102 98 100 98 93 93 96 96 99 102 103 103 91 79 70 64 62
293 292 300 298 306 314 321 318 74 79 90 95 94 93 93 94 97 99 101 100 101 100 99 98 99 98 95 93 89 87 88 92 101 105 110 115 117 114 110 104 94 80 78
285 288 310 304 321 324 24 87 83 69 94 108 102 106 110 104 106 110 109 107 107 105 99 93 92 91 90 89 87 89 91 91 93 91 95 94 91 89 90 96 101 100 96
322 323 321 334 334 41 84 79 77 87 92 97 103 105 101 108 109 108 107 105 104 103 95 96 93 94 95 99 100 96 94 95 95 97 97 96 94 90 88 85 82 82 75
19 40 360 352 74 83 89 92 86 77 85 96 100 100 104 113 109 107 104 99 97 96 93 95 97 97 98 97 96 96 95 94 94 96 101 100 97 94 94 90 85 75 69
40 18 36 76 80 87 94 99 98 97 95 91 94 104 106 106 103 101 100 93 88 84 93 97 98 100 100 98 96 97 98 97 94 92 91 88 89 90 90 88 87 89 87
53 82 86 86 89 96 100 103 102 101 102 106 106 99 101 97 92 90 90 93 98 94 95 97 101 102 99 98 96 95 98 101 99 97 94 97 96 98 99 98 99 96 93
98 101 102 102 102 103 106 107 107 108 108 110 108 109 105 94 88 87 89 95 96 98 100 98 98 96 96 100 101 101 102 101 99 100 100 101 102 100 98 98 99 95 87
103 108 109 105 106 111 112 111 111 112 111 109 103 102 102 100 99 97 96 95 100 101 102 101 100 103 103 103 104 103 102 103 101 101 101 101 99 94 93 93 93 95 95
93 100 106 107 112 111 111 110 110 111 109 106 103 99 100 97 98 97 96 97 98 98 100 105 102 101 104 108 111 109 107 108 106 105 103 100 99 98 95 87 83 82 82
100 103 105 108 109 111 109 108 110 110 110 106 104 103 101 99 100 101 102 102 101 99 100 102 101 100 100 101 104 109 114 113 114 112 109 104 97 94 93 91 83 81 83
101 103 105 107 109 111 111 112 112 111 110 106 105 105 104 104 105 104 104 104 101 99 98 99 102 105 103 101 103 105 108 110 109 110 109 105 100 99 97 94 87 79 75
100 105 104 108 112 112 113 113 115 116 112 110 111 109 108 108 106 106 106 105 105 106 103 100 101 105 108 110 111 110 111 111 110 107 104 101 100 98 95 91 85 79 77
95 102 99 102 106 111 115 117 118 116 115 116 116 113 114 112 112 112 111 110 108 107 107 105 109 111 109 109 112 112 112 109 106 105 102 101 100 97 93 90 87 84 81